Station COVM2 - 8577018 - Cove Point LNG Pier, MD Image indicating link to RSS feed of recent meteorological observations for station COVM2


Conditions at COVM2 as of
(3:30 am EDT)
0730 GMT on 04/23/2024:
     

Click on the graph icon in the table below to see a time series plot of the last five days of that observation.

5-day plot - Wind Direction Wind Direction (WDIR): S ( 170 deg true )
5-day plot - Wind Speed Wind Speed (WSPD): 13.0 kts
5-day plot - Wind Gust Wind Gust (GST): 17.1 kts
5-day plot - Atmospheric Pressure Atmospheric Pressure (PRES):30.13 in
5-day plot - Air Temperature Air Temperature (ATMP): 50.2 °F
5-day plot - Wind Chill Wind Chill (CHILL): 45.0 °F
5-day plot - Wind Speed at 10 Meters Wind Speed at 10 meters (WSPD10M): 11.7 kts
5-day plot - Wind Speed at 20 Meters Wind Speed at 20 meters (WSPD20M): 13.6 kts
5-day plot -  Wind Speed, Wind Gust and Atmospheric Pressure Combined plot of Wind Speed, Gust, and Air Pressure
NOS Water Level Observation Network Water Level
Previous observations
TIME
(EDT)
5-day plot - Wind Direction
WDIR
 
5-day plot - Wind Speed
WSPD
kts
5-day plot - Wind Gust
GST
kts
5-day plot - Wave Height
WVHT
ft
5-day plot - Dominant Wave Period
DPD
sec
5-day plot - Average Wave Period
APD
sec
5-day plot - Mean Wave Direction
MWD
 
5-day plot - Atmospheric Pressure
PRES
in
5-day plot - Pressure Tendency
PTDY
in
5-day plot - Air Temperature
ATMP
°F
5-day plot - Water Temperature
WTMP
°F
5-day plot - Dew Point
DEWP
°F
5-day plot - Salinity
SAL
psu
5-day plot - Visibility
VIS
nmi
5-day plot - Tide (above MLLW)
TIDE
ft
2024-04-23 03:24 am S 14.0 15.9----30.13- 50.2-----
2024-04-23 03:18 am S 14.0 17.1----30.13- 50.4-----
2024-04-23 03:12 am S 12.0 15.9----30.13- 50.5-----
2024-04-23 03:06 am S 14.0 17.1----30.13- 50.9-----
2024-04-23 03:00 am S 9.9 14.0----30.13-0.01 51.1-----
2024-04-23 02:54 am S 8.0 13.0----30.13- 51.3-----
2024-04-23 02:48 am S 9.9 14.0----30.13- 51.6-----
2024-04-23 02:42 am S 8.0 12.0----30.13- 51.6-----
2024-04-23 02:36 am S 9.9 15.9----30.13- 52.3-----
2024-04-23 02:30 amSSE 12.0 17.1----30.13- 52.0-----
2024-04-23 02:24 amSSE 13.0 17.1----30.13- 51.6-----
2024-04-23 02:18 amSSE 13.0 15.9----30.13- 51.3-----
2024-04-23 02:12 amSSE 13.0 15.9----30.14- 51.3-----
2024-04-23 02:06 amSSE 12.0 15.0----30.14- 51.3-----
2024-04-23 02:00 amSSE 14.0 15.9----30.14+0.00 51.6-----
2024-04-23 01:54 amSSE 11.1 15.0----30.14- 51.4-----
2024-04-23 01:48 amSSE 11.1 15.0----30.14- 52.3-----
2024-04-23 01:42 amSSE 11.1 14.0----30.14- 52.3-----
2024-04-23 01:36 am S 8.9 13.0----30.14- 52.0-----
2024-04-23 01:30 amSSE 8.0 11.1----30.14- 51.8-----
2024-04-23 01:24 amSSE 6.0 11.1----30.14- 51.4-----
2024-04-23 01:18 amSSE 8.9 12.0----30.14- 51.6-----
2024-04-23 01:12 amSSE 8.0 11.1----30.14- 52.3-----
2024-04-23 01:06 amSSE 8.9 12.0----30.14- 52.5-----
2024-04-23 01:00 amSSE 8.0 12.0----30.14+0.01 52.9-----
2024-04-23 12:54 am S 8.0 13.0----30.14- 52.5-----
2024-04-23 12:48 amSSE 9.9 13.0----30.14- 52.5-----
2024-04-23 12:42 amSSE 9.9 12.0----30.14- 52.9-----
2024-04-23 12:36 am SE 9.9 12.0----30.14- 53.1-----
2024-04-23 12:30 amSSE 9.9 12.0----30.14- 52.7-----
2024-04-23 12:24 am SE 8.9 9.9----30.14- 53.2-----
2024-04-23 12:18 am SE 8.0 9.9----30.14- 52.7-----
2024-04-23 12:12 amESE 7.0 8.9----30.14- 52.2-----
2024-04-23 12:06 amESE 8.0 9.9----30.14- 52.3-----
2024-04-23 12:00 am SE 8.0 8.9----30.14+0.02 52.3-----
2024-04-22 11:54 pmESE 7.0 8.9----30.14- 52.0-----
2024-04-22 11:48 pmESE 8.0 8.9----30.14- 52.2-----
2024-04-22 11:42 pmESE 5.1 8.0----30.14- 52.2-----
2024-04-22 11:36 pm E 7.0 8.0----30.14- 52.2-----
2024-04-22 11:30 pm E 7.0 8.0----30.14- 52.2-----
2024-04-22 11:24 pm E 6.0 7.0----30.14- 52.2-----
2024-04-22 11:18 pmESE 5.1 6.0----30.14- 52.3-----
2024-04-22 11:12 pmESE 5.1 6.0----30.14- 52.5-----
2024-04-22 11:06 pmESE 5.1 6.0----30.14- 52.9-----
2024-04-22 11:00 pmESE 5.1 5.1----30.13+0.03 53.1-----
2024-04-22 10:54 pm SE 5.1 6.0----30.13- 53.4-----
2024-04-22 10:48 pmESE 4.1 4.1----30.13- 53.4-----
2024-04-22 10:42 pm E 2.9 2.9----30.13- 53.4-----
2024-04-22 10:36 pmESE 2.9 5.1----30.13- 53.4-----
2024-04-22 10:30 pmESE 2.9 4.1----30.13- 53.2-----
2024-04-22 10:24 pm E 1.9 4.1----30.13- 53.2-----
2024-04-22 10:18 pm E 2.9 2.9----30.13- 53.2-----
2024-04-22 10:12 pmESE 1.0 2.9----30.13- 53.1-----
2024-04-22 10:06 pm SE 2.9 4.1----30.13- 53.2-----
2024-04-22 10:00 pm SE 4.1 5.1----30.13+0.03 53.4-----
2024-04-22 09:54 pm SE 4.1 5.1----30.13- 53.6-----
2024-04-22 09:48 pmESE 4.1 5.1----30.13- 53.8-----
2024-04-22 09:42 pmESE 4.1 5.1----30.13- 53.8-----
2024-04-22 09:36 pm SE 5.1 5.1----30.13- 54.0-----
2024-04-22 09:30 pm SE 5.1 6.0----30.13- 54.1-----
2024-04-22 09:24 pm SE 5.1 6.0----30.12- 54.1-----
2024-04-22 09:18 pmESE 5.1 5.1----30.12-------
2024-04-22 09:12 pmESE 5.1 6.0----30.12-------
2024-04-22 09:06 pmESE 5.1 6.0----30.12-------
2024-04-22 09:00 pm SE 5.1 6.0----30.12+0.02 54.1-----
2024-04-22 08:54 pmESE 6.0 6.0----30.12- 54.7-----
2024-04-22 08:48 pm E 6.0 8.0----30.11-------
2024-04-22 08:42 pmESE 6.0 7.0----30.11-------
2024-04-22 08:36 pm E 6.0 7.0----30.11-------
2024-04-22 08:30 pm E 7.0 8.0----30.11- 55.4-----
2024-04-22 08:24 pm E 7.0 7.0----30.11- 55.2-----
2024-04-22 08:18 pm--------- 55.4-----
2024-04-22 08:12 pm--------- 55.4-----
2024-04-22 08:06 pm--------- 55.8-----
2024-04-22 08:00 pm E 8.0 8.9----30.10+0.01 55.8-----
2024-04-22 07:54 pm E 8.0 8.9----30.10- 55.9-----
2024-04-22 07:48 pm E 8.0 8.9----30.10- 55.8-----
2024-04-22 07:42 pm E 8.0 8.9----30.10- 55.8-----
2024-04-22 07:36 pm E 8.0 8.9----30.10- 55.8-----
2024-04-22 07:30 pm E 8.0 8.9----30.10- 55.8-----
2024-04-22 07:24 pm E 8.9 8.9----30.10- 55.6-----
2024-04-22 07:18 pm E 8.0 8.9----30.10- 55.8-----
2024-04-22 07:12 pm E 8.0 8.9----30.10- 55.8-----
2024-04-22 07:06 pm E 8.0 8.9----30.10- 55.8-----
2024-04-22 07:00 pm E 8.9 9.9----30.10+0.00 55.6-----
2024-04-22 06:54 pm E 8.0 8.9----30.10- 55.8-----
2024-04-22 06:48 pm E 8.0 8.9----30.10- 55.9-----
2024-04-22 06:42 pm E 8.0 8.9----30.10- 55.9-----
2024-04-22 06:36 pm E 7.0 8.9----30.10- 55.9-----
2024-04-22 06:30 pm E 8.0 8.0----30.10- 55.9-----
2024-04-22 06:24 pm E 7.0 8.0----30.10- 55.9-----
2024-04-22 06:18 pm E 7.0 8.9----30.10- 55.8-----
2024-04-22 06:12 pm E 7.0 8.0----30.10- 55.8-----
2024-04-22 06:06 pm E 7.0 8.0----30.10- 55.8-----
2024-04-22 06:00 pm E 8.0 8.9----30.10-0.02 55.6-----
2024-04-22 05:54 pm E 8.0 8.9----30.10- 55.8-----
2024-04-22 05:48 pm E 5.1 6.0----30.10- 55.9-----
2024-04-22 05:42 pmENE 5.1 5.1----30.09- 55.9-----
2024-04-22 05:36 pmENE 5.1 5.1----30.09- 55.8-----
2024-04-22 05:30 pmENE 4.1 5.1----30.09- 55.6-----
2024-04-22 05:24 pmENE 4.1 6.0----30.09- 55.9-----
2024-04-22 05:18 pm E 5.1 6.0----30.09- 55.6-----
2024-04-22 05:12 pm E 5.1 7.0----30.09- 55.2-----
2024-04-22 05:06 pm E 7.0 7.0----30.09- 55.2-----
2024-04-22 05:00 pm E 4.1 5.1----30.09-0.04 55.4-----
2024-04-22 04:54 pmNNE 2.9 4.1----30.09- 56.1-----
2024-04-22 04:48 pm N 4.1 4.1----30.09- 55.9-----
2024-04-22 04:42 pm N 1.9 4.1----30.09- 56.1-----
2024-04-22 04:36 pm N 2.9 5.1----30.09- 55.6-----
2024-04-22 04:30 pm N 5.1 6.0----30.09- 55.2-----
2024-04-22 04:24 pmNNW 5.1 6.0----30.09- 55.0-----
2024-04-22 04:18 pmNNW 5.1 6.0----30.10- 54.9-----
2024-04-22 04:12 pmNNW 5.1 7.0----30.10- 54.7-----
2024-04-22 04:06 pmNNW 5.1 6.0----30.10- 54.5-----
2024-04-22 04:00 pmNNW 5.1 6.0----30.10-0.06 54.3-----
2024-04-22 03:54 pm N 4.1 5.1----30.10- 54.3-----
2024-04-22 03:48 pmNNW 2.9 5.1----30.10- 54.3-----
2024-04-22 03:42 pmNNW 4.1 6.0----30.11- 54.1-----
2024-04-22 03:36 pm N 4.1 5.1----30.11- 54.0-----
2024-04-22 03:30 pm N 4.1 5.1----30.11- 54.0-----
2024-04-22 03:24 pmNNW 2.9 5.1----30.11- 54.0-----
2024-04-22 03:18 pmNNW 4.1 6.0----30.11- 54.0-----
2024-04-22 03:12 pmNNW 6.0 7.0----30.12- 53.6-----
2024-04-22 03:06 pm NW 7.0 8.0----30.12- 53.4-----
2024-04-22 03:00 pm NW 6.0 8.9----30.12-0.05 53.4-----
2024-04-22 02:54 pmNNW 6.0 8.9----30.12- 53.2-----
2024-04-22 02:48 pm NW 7.0 8.9----30.12- 53.1-----
2024-04-22 02:42 pm NW 8.0 8.9----30.12- 53.1-----
2024-04-22 02:36 pm NW 8.0 9.9----30.13- 52.9-----
2024-04-22 02:30 pm NW 8.0 9.9----30.13- 52.7-----
2024-04-22 02:24 pm NW 8.0 9.9----30.14- 52.7-----
2024-04-22 02:18 pm NW 9.9 11.1----30.14- 52.3-----
2024-04-22 02:12 pm NW 8.9 12.0----30.14- 52.5-----
2024-04-22 02:06 pmNNW 8.9 12.0----30.14- 52.2-----
2024-04-22 02:00 pm NW 8.9 13.0----30.14-0.03 52.2-----
2024-04-22 01:54 pm NW 11.1 14.0----30.14- 52.0-----
2024-04-22 01:48 pm NW 11.1 14.0----30.14- 52.0-----
2024-04-22 01:42 pm NW 9.9 12.0----30.14- 51.8-----
2024-04-22 01:36 pmNNW 9.9 13.0----30.15- 51.6-----
2024-04-22 01:30 pm NW 11.1 13.0----30.15- 51.6-----
2024-04-22 01:24 pm NW 9.9 12.0----30.15- 51.4-----
2024-04-22 01:18 pm NW 8.9 12.0----30.15- 51.3-----
2024-04-22 01:12 pm NW 8.0 11.1----30.15- 51.3-----
2024-04-22 01:06 pm NW 7.0 11.1----30.16- 51.3-----
2024-04-22 01:00 pmWNW 7.0 8.9----30.16+0.00 51.1-----
2024-04-22 12:54 pmWNW 7.0 8.9----30.16- 50.9-----
2024-04-22 12:48 pmWNW 6.0 8.9----30.16- 50.7-----
2024-04-22 12:42 pmWNW 6.0 8.9----30.16- 50.7-----
2024-04-22 12:36 pmWNW 6.0 11.1----30.17- 50.9-----
2024-04-22 12:30 pm W 9.9 13.0----30.17- 50.5-----
2024-04-22 12:24 pm W 11.1 13.0----30.16- 50.4-----
2024-04-22 12:18 pm W 9.9 13.0----30.17- 50.2-----
2024-04-22 12:12 pm W 8.0 13.0----30.17- 50.2-----
2024-04-22 12:06 pm W 12.0 13.0----30.17- 49.8-----
2024-04-22 12:00 pm W 9.9 12.0----30.17+0.03 49.8-----
2024-04-22 11:54 am W 9.9 12.0----30.17- 50.0-----
2024-04-22 11:48 am W 11.1 12.0----30.17- 49.8-----
2024-04-22 11:42 am W 11.1 13.0----30.17- 49.6-----
2024-04-22 11:36 am W 9.9 13.0----30.17- 49.5-----
2024-04-22 11:30 am W 11.1 14.0----30.17- 49.3-----
2024-04-22 11:24 am W 13.0 15.0----30.17- 49.1-----
2024-04-22 11:18 am W 12.0 14.0----30.17- 49.3-----
2024-04-22 11:12 am W 11.1 15.9----30.17- 49.3-----
2024-04-22 11:06 am W 13.0 15.0----30.16- 48.9-----
2024-04-22 11:00 am W 11.1 15.0----30.16+0.04 48.9-----
2024-04-22 10:54 am W 12.0 14.0----30.16- 48.7-----
2024-04-22 10:48 am W 9.9 15.9----30.16- 48.9-----
2024-04-22 10:42 amWNW 8.9 13.0----30.16- 48.9-----
2024-04-22 10:36 am W 8.9 15.0----30.16- 48.7-----
2024-04-22 10:30 am W 8.9 14.0----30.16- 49.1-----
2024-04-22 10:24 am W 8.9 13.0----30.16- 48.9-----
2024-04-22 10:18 amWNW 9.9 12.0----30.16- 48.4-----
2024-04-22 10:12 am W 8.9 14.0----30.15- 48.7-----
2024-04-22 10:06 am W 8.0 14.0----30.15- 48.9-----
2024-04-22 10:00 amWNW 11.1 14.0----30.15+0.05 48.2-----
2024-04-22 09:54 amWNW 9.9 13.0----30.15- 48.4-----
2024-04-22 09:48 amWNW 9.9 14.0----30.15- 48.4-----
2024-04-22 09:42 amWNW 11.1 15.0----30.15- 48.4-----
2024-04-22 09:36 amWNW 12.0 15.9----30.14- 48.4-----
2024-04-22 09:30 amWNW 12.0 18.1----30.14- 48.2-----
2024-04-22 09:24 amWNW 11.1 17.1----30.14- 48.0-----
2024-04-22 09:18 amWNW 14.0 18.1----30.14- 47.8-----
2024-04-22 09:12 amWNW 13.0 17.1----30.14- 47.8-----
2024-04-22 09:06 amWNW 13.0 19.0----30.14- 47.8-----
2024-04-22 09:00 amWNW 13.0 18.1----30.14+0.06 47.8-----
2024-04-22 08:54 amWNW 12.0 19.0----30.14- 47.7-----
2024-04-22 08:48 amWNW 12.0 17.1----30.14- 47.5-----
2024-04-22 08:42 amWNW 13.0 17.1----30.14- 47.5-----
2024-04-22 08:36 amWNW 13.0 19.0----30.14- 47.5-----
2024-04-22 08:30 amWNW 12.0 19.0----30.13- 47.8-----
2024-04-22 08:24 amWNW 15.0 18.1----30.13- 47.5-----
2024-04-22 08:18 amWNW 14.0 19.0----30.13- 47.7-----
2024-04-22 08:12 amWNW 14.0 18.1----30.13- 47.5-----
2024-04-22 08:06 amWNW 14.0 19.0----30.13- 47.8-----
2024-04-22 08:00 amWNW 14.0 20.0----30.13+0.07 48.0-----
2024-04-22 07:54 amWNW 13.0 18.1----30.13- 48.0-----
2024-04-22 07:48 amWNW 15.9 19.0----30.12- 47.8-----
2024-04-22 07:42 amWNW 15.0 19.0----30.12- 47.8-----
2024-04-22 07:36 amWNW 13.0 18.1----30.13- 47.7-----
2024-04-22 07:30 amWNW 13.0 19.0----30.12- 47.8-----
2024-04-22 07:24 amWNW 15.0 20.0----30.12- 47.8-----
2024-04-22 07:18 amWNW 14.0 19.0----30.11- 47.7-----
2024-04-22 07:12 amWNW 15.0 20.0----30.11- 47.5-----
2024-04-22 07:06 amWNW 14.0 20.0----30.11- 47.5-----
2024-04-22 07:00 amWNW 12.0 22.9----30.10+0.04 47.5-----
2024-04-22 06:54 amWNW 12.0 20.0----30.09- 47.7-----
2024-04-22 06:48 amWNW 14.0 21.0----30.09- 47.5-----
2024-04-22 06:42 amWNW 15.0 21.0----30.09- 47.5-----
2024-04-22 06:36 amWNW 12.0 19.0----30.09- 47.7-----
2024-04-22 06:30 amWNW 14.0 19.0----30.09- 47.8-----
2024-04-22 06:24 amWNW 9.9 17.1----30.09- 47.8-----
2024-04-22 06:18 amWNW 13.0 17.1----30.09- 47.8-----
2024-04-22 06:12 amWNW 12.0 21.0----30.08- 48.2-----
2024-04-22 06:06 amWNW 13.0 22.0----30.08- 48.2-----
2024-04-22 06:00 am NW 13.0 22.0----30.08+0.04 48.7-----
2024-04-22 05:54 amWNW 15.9 22.0----30.07- 48.6-----
2024-04-22 05:48 amWNW 13.0 20.0----30.07- 48.6-----
2024-04-22 05:42 amWNW 13.0 22.9----30.07- 48.4-----
2024-04-22 05:36 am NW 17.1 22.0----30.07- 48.7-----
2024-04-22 05:30 am NW 14.0 22.9----30.07- 48.7-----
2024-04-22 05:24 am NW 18.1 26.0----30.07- 48.9-----
2024-04-22 05:18 am NW 20.0 24.1----30.06- 48.7-----
2024-04-22 05:12 am NW 18.1 25.1----30.06- 48.9-----
2024-04-22 05:06 am NW 18.1 22.9----30.06- 48.9-----
2024-04-22 05:00 am NW 19.0 28.0----30.06+0.02 49.1-----
2024-04-22 04:54 am NW 19.0 27.0----30.06- 48.9-----
2024-04-22 04:48 amWNW 18.1 22.9----30.06- 48.9-----
2024-04-22 04:42 am NW 22.0 26.0----30.06- 48.9-----
2024-04-22 04:36 amWNW 18.1 22.0----30.06- 48.9-----
2024-04-22 04:30 amWNW 18.1 22.0----30.06- 48.7-----
2024-04-22 04:24 amWNW 19.0 24.1----30.06- 48.9-----
2024-04-22 04:18 amWNW 17.1 22.9----30.06- 49.1-----
2024-04-22 04:12 amWNW 15.9 24.1----30.06- 49.1-----
2024-04-22 04:06 amWNW 19.0 22.9----30.06- 49.1-----
2024-04-22 04:00 am W 19.0 25.1----30.06+0.01 48.9-----
2024-04-22 03:54 amWNW 12.0 22.9----30.06- 48.7-----